Location: Avon
(37.7514°N, 90.2235°W)
Time: 12:26:30
(UTC+00:00)

A-11 Canister half - Pass Details

Date: 13 November 2025
Orbit: 1526 x 1681 km, 47.3° (Epoch: 05 December)

Event Time Altitude Azimuth Distance (km) Brightness Sun altitude
Rises 02:37:57 0° 268° (W) 4,861 12.4 -44.7°
Reaches altitude 10° 02:41:16 10° 274° (W) 3,855 11.6 -45.4°
Enters shadow 02:48:26 44° 311° (NW) 2,098 9.8 -46.8°
